STARLINK-2517 (48309 NORAD) Tracking and Keplerian Element Data

This shows tracking and keplerian element data for the satellite.

Feedback or suggestion? Click here.




ElementValue
Catalog48309
NameSTARLINK-2517
Epoch Orbit187
Epoch Day170.58334491
Epoch Year2021
RAAN274.2118
Inclination53.0519
Eccentricity0.0001302
Argument of Perigee63.5814
Mean Anonmoly185.7901
Mean Motion15.49141271
Decay Rate-0.01081243
L11 48309U 21036AK 21170.58334491 -.01081243 00000-0 -21585-1 0 9997
L22 48309 53.0519 274.2118 0001302 63.5814 185.7901 15.49141271 1879

Live tracking and technical data element details for STARLINK-2517 (NORAD 48309). STARLINK-2517 can be tracked NOW for your location showing map with azimuth and elevation plus other details from your city location.

Track the satellite on the map from your city or location and see movement details for azimuth, elevation, latitude, longitude, range, height, and movement on the map or in text.







IsCatalogInMostPopularTable: catalog: 48309, numindb: 21
Update: records affected: 1



GetName: 48309 STARLINK-2517

Hit Count: updated at: Mon, 21 Jun 2021 04:52:41 GMT